Regional Weather Roundup
Issued by NWS

Home | Current Version | Previous Version | Text Only | Print | Product List | Glossary Off
Versions: 1 2 3 4 5 6 7 8 9 10 11 12 13 14 15 16 17 18 19 20 21 22 23 24 25 26 27 28 29 30 31 32 33 34 35 36 37 38 39 40 41 42 43 44 45 46 47 48 49 50

000
ASUS45 KBOU 031710
RWRCO

WEATHER ROUNDUP FOR COLORADO
NATIONAL WEATHER SERVICE DENVER/BOULDER CO
1100 AM MDT FRI JUL 03 2015

NOTE: "FAIR" INDICATES FEW OR NO CLOUDS BELOW 12000 FEET WITH NO
SIGNIFICANT WEATHER AND/OR OBSTRUCTIONS TO VISIBILITY.

COZ001>005-013-030-031-031800-
...NORTHWEST COLORADO...

CITY           SKY/WX    TMP DP  RH WIND       PRES   REMARKS
CRAIG          SUNNY     81  45  28 CALM      30.19F
HAYDEN         SUNNY     77  43  29 CALM      30.22S
MEEKER         SUNNY     79  47  32 E3        30.20F
MOUNT WERNER   NOT AVBL
STEAMBOAT SPGS SUNNY     75  44  33 CALM      30.24S
WALDEN         SUNNY     70  45  40 SW5       30.34F
$$

COZ006>008-011-031800-
...WEST CENTRAL VALLEYS...

CITY           SKY/WX    TMP DP  RH WIND       PRES   REMARKS
GRAND JUNCTION SUNNY     87  49  26 S13       30.07F
MONTROSE       SUNNY     85  45  24 E8        30.17F
EAGLE          MOSUNNY   77  45  31 CALM      30.23F
RIFLE          SUNNY     83  45  26 N5        30.13F
DELTA          SUNNY     87  47  24 S5        30.13F
NUCLA          SUNNY     81  46  30 CALM      30.22F
$$

COZ017>023-064>068-031800-
...SOUTHWEST COLORADO...

CITY           SKY/WX    TMP DP  RH WIND       PRES   REMARKS
DURANGO        MOSUNNY   76  51  41 VRB5      30.27F
CORTEZ         SUNNY     81  54  39 S15       30.22S
PAGOSA SPRINGS MOSUNNY   72  46  38 W6        30.35F THUNDER
TELLURIDE      MOSUNNY   63  50  62 CALM      30.47F
WOLF CREEK PAS NOT AVBL
$$

COZ009-010-012-014-032>034-037-058>063-031800-
...CENTRAL COLORADO...

CITY           SKY/WX    TMP DP  RH WIND       PRES   REMARKS
ASPEN          MOSUNNY   75  48  38 N5        30.30S
BUENA VISTA    SUNNY     67  49  51 CALM      30.35S
COPPER MTN     SUNNY     61  32  33 W20G32    30.63F
BERTHOUD PASS  FAIR      52  41  66 N9        30.68R
COTTONWOOD PAS NOT AVBL
GUNNISON       MOSUNNY   68  48  49 E9        30.38F
KREMMLING      SUNNY     75  39  27 W3        30.30F
LEADVILLE      SUNNY     66  38  35 CALM      30.45F
MONARCH PASS   MOSUNNY   50  43  76 SW7       30.74S
SALIDA         SUNNY     68  53  58 CALM      30.38F
SUNLIGHT       SUNNY     64  48  55 CALM      30.57S
WILKERSON PASS SUNNY     59  46  63 CALM      30.61R
$$

COZ069>075-031800-
...SAN LUIS VALLEY/SANGRE DE CRISTO MOUNTAINS...

CITY           SKY/WX    TMP DP  RH WIND       PRES   REMARKS
ALAMOSA        PTSUNNY   67  53  61 NW17      30.38R
LA VETA PASS   MOSUNNY   63  45  51 MISG      30.52S
SAGUACHE       PTSUNNY   61  52  72 NW3       30.39F
$$

COZ035-036-038>040-031800-
...NORTHERN COLORADO FRONT RANGE...

CITY           SKY/WX    TMP DP  RH WIND       PRES   REMARKS
DENVER INTL AP MOSUNNY   73  56  54 VRB5      30.19F
DMNS CITY PARK   N/A     76  56  50 SW2G9     30.19S
AURORA         MOSUNNY   71  59  66 NE5       30.22S
FRONT RANGE AP MOSUNNY   73  57  56 SE5       30.21S
ERIE MUNI ARPT SUNNY     73  58  60 CALM      30.18F
BOULDER MUN AP MOSUNNY   72  61  68 SE3       30.19F
CENTENNIAL     MOSUNNY   71  58  63 NE5       30.22S
BROOMFIELD     MOSUNNY   72  59  64 N6        30.22S
FORT COLLINS   SUNNY     72  57  60 CALM      30.19F
LONGMONT       SUNNY     77  59  53 NE3       30.19F
$$

COZ041-046-047-076>085-087-088-031800-
...PIKES PEAK/PALMER DIVIDE AND SOUTHERN FOOTHILLS...

CITY           SKY/WX    TMP DP  RH WIND       PRES   REMARKS
COLO. SPRINGS  MOSUNNY   72  56  57 S9        30.25F
A. F. ACADEMY  SUNNY     71  56  59 S13       30.25F
ELLICOTT       SUNNY    N/A N/A N/A VRB6      30.24S
FALCON         SUNNY     70  55  58 S12       30.30S
FORT CARSON    NOT AVBL
LIMON          SUNNY     74  56  53 VRB6      30.21S
MONUMENT HILL  NOT AVBL
TRINIDAD       SUNNY     78  56  46 SE5       30.21S
$$

COZ042>045-048>051-090-091-031800-
...NORTHEAST COLORADO...

CITY           SKY/WX    TMP DP  RH WIND       PRES   REMARKS
GREELEY ARPT   MOSUNNY   73  61  64 N5        30.18S
AKRON          MOSUNNY   73  58  59 E3        30.17S
BURLINGTON     MOSUNNY   77  51  40 S3        30.14S
WRAY           MOSUNNY   79  55  42 E5        30.11F
STERLING       MOSUNNY   75  57  53 CALM        N/A
HOLYOKE        MOSUNNY   81  54  39 CALM      30.11F
FORT MORGAN    MOSUNNY   78  52  40 E7        30.17S
$$

COZ086-089-092>099-031800-
...SOUTHEAST COLORADO...

CITY           SKY/WX    TMP DP  RH WIND       PRES   REMARKS
PUEBLO         SUNNY     80  56  43 CALM      30.15F
LA JUNTA       SUNNY     80  58  46 VRB3      30.13F
LAMAR          PTSUNNY   79  62  56 SW6       30.09F
SPRINGFIELD      N/A     82  55  39 VRB3      30.13S
$$



USA.gov is the U.S. government's official web portal to all federal, state and local government web resources and services.